Location: Bonneuil
(46.1010°N, 2.9693°E)
Time: 00:13:11
(UTC+00:00)

ISS - Pass Details

Date: 11 March 2021
Orbit: 418 x 422 km, 51.6° (Epoch: 10 April)

Event Time Altitude Azimuth Distance (km) Brightness Sun altitude
Exits shadow 05:33:31 - 269° (W) 1,568 -1.6 -6.9°
Reaches altitude 10° 05:33:47 10° 266° (W) 1,496 -1.7 -6.8°
Maximum altitude 05:35:59 17° 225° (SW) 1,160 -1.9 -6.4°
Drops below altitude 10° 05:38:11 10° 184° (S) 1,490 -1.0 -6.1°
Sets 05:40:47 0° 162° (SSE) 2,349 0.3 -5.6°
